Preview of NWS' New Version of Forecast
This preview is not operational and should not be used for support decisions.

Regional Weather Roundup (RWR)

Issued by National Weather Service (NWS)

                            
000
ASCA42 TJSJ 220210
RWRPR 
PUERTO RICO/U.S. VIRGIN ISLANDS HOURLY WEATHER ROUNDUP
NATIONAL WEATHER SERVICE SAN JUAN PR
1000 PM AST SUN APR 21 2019

PRZ001>002-007>008-010-220300-
PUERTO RICO
  
CITY           SKY/WX    TMP DP  RH WIND       PRES   REMARKS
SAN JUAN LMM   LGT RAIN  77  72  83 E7G18     30.06R                  
CEIBA          MOCLDY    81  70  69 MISG      30.07R                  
$$

VIZ001>002-220300-
U.S. VIRGIN ISLANDS
  
CITY           SKY/WX    TMP DP  RH WIND       PRES   REMARKS
CHARLOTTE AMA  PTCLDY    79  68  69 NE13      30.05R                  
CHRISTIANSTED  LGT RAIN  79  68  69 NE12      30.05R                  
$$

HOURLY WEATHER ROUNDUP FOR THE NEWS MEDIA
  
CITY           SKY/WX    TMP DP  RH WIND       PRES   REMARKS
ORLANDO        FAIR      70  43  37 NW8       30.14R                  
NEW YORK       MOCLDY    53  49  86 E5        30.10R                  
NEWARK         CLOUDY    56  48  74 E7        30.09R                  
CHICAGO        MOCLDY    69  37  30 S10       30.01R                  
HARTFORD       FAIR      52  52 100 SE5       30.12F                  
BOSTON         CLOUDY    60  52  74 S6        30.12R                  
DALLAS         PTCLDY    77  57  50 SE17G28   29.91R                  
PHILADELPHIA   FAIR      62  48  60 SW5       30.07R                  
LOS ANGELES    CLEAR     61  48  62 W18       29.97S                  
WASHINGTON DC  MOCLDY    58  45  62 NW8       30.08R